Tracking 19149 objects as of 21-Apr-2018
HD Live streaming from Space Station
objects crossing your sky now

FENGYUN 1C DEB

Track FENGYUN 1C DEB now!
10-day predictions


NORAD ID: 31094
Int'l Code: 1999-025BGQ
Perigee: 843.0 km
Apogee: 1,011.7 km
Inclination: 99.0 °
Period: 103.4 minutes
Semi major axis: 7298 km
RCS: 0.0135 m2 (small)
Launch date: May 10, 1999
Source: People's Republic of China (PRC)
Launch site: Taiyaun Space Center, China (TSC)

Note: This is SATELLITE DEBRIS
aabbcc
Your satellite tracking list
Your tracking list is empty




NASA's NSSDC Master Catalog

Two Line Element Set (TLE):
1 31094U 99025BGQ 18110.95170480 +.00000755 +00000-0 +58721-3 0  9990
2 31094 099.0391 018.0949 0115617 153.3928 207.3229 13.92401373566727
Source of the keplerian elements: AFSPC